Starlink 3852

operational
NORAD ID: 52345 Int'l Des: 2022-045 Owner: SPXS Country: US Constellation: starlink
LEOCIRCULAR

关于 Starlink 3852

正在加载描述...

实时位置

正在加载3D地球...

即将过境

高度历史

Altitude vs Time

uPlot chart will show altitude changes over time

两行轨道根数

1 52345U 22045Q 26073.70941748 .00001990 00000-0 14304-3 0 9994
2 52345 53.2170 176.7507 0001219 105.7609 254.3518 15.08851976216527
Epoch: Mar 14, 2026 • Age: 16 hours

当前状态

高度 543.4 km
速度 7.60 km/s
星下点 44.47°N, 7.95°W
发射日期 Apr 29, 2022
运行时间 3.8 years
类型 internet

技术详情

分类 Payload
质量 297.00 kg
干质量 275.00 kg
总质量 297.00 kg
长度 0.20 m
直径 2.80 m
跨度 9.00 m
形状 Box + pan
制造商 SPXS
平台类型 Starlink
阶段状态 In Orbit
所有者/国家 SPXS/US

大型星座

Loading constellations...